Previsão horária em Abbenrode

Hoje, 17 Abril, Sábado

Tempo Temperatura Precipitação Vento Pressão Humidade
00:00 +2°C° 0 mm 1 m/s 747 mmHg 83%
01:00 +1°C° 0 mm 1 m/s 747 mmHg 84%
02:00 +1°C° 0 mm 1 m/s 746 mmHg 82%
03:00 +1°C° 0 mm 2 m/s 746 mmHg 81%
04:00 +1°C° 0 mm 2 m/s 746 mmHg 79%
05:00 +1°C° 0 mm 2 m/s 746 mmHg 77%
06:00 +2°C° 0 mm 2 m/s 746 mmHg 74%
07:00 +3°C° 0 mm 2 m/s 746 mmHg 72%
08:00 +3°C° 0 mm 2 m/s 746 mmHg 74%
09:00 +4°C° 0 mm 2 m/s 746 mmHg 75%
10:00 +5°C° 0 mm 2 m/s 746 mmHg 77%
11:00 +4°C° 0 mm 3 m/s 745 mmHg 73%
12:00 +5°C° 0 mm 3 m/s 745 mmHg 69%
13:00 +7°C° 0 mm 3 m/s 745 mmHg 66%
14:00 +7°C° 0 mm 3 m/s 745 mmHg 66%
15:00 +8°C° 0 mm 3 m/s 745 mmHg 67%
16:00 +8°C° 0 mm 3 m/s 744 mmHg 68%
17:00 +7°C° 0 mm 3 m/s 744 mmHg 73%
18:00 +6°C° 0 mm 2 m/s 744 mmHg 78%
19:00 +6°C° 0 mm 1 m/s 744 mmHg 84%
20:00 +6°C° 0 mm 1 m/s 744 mmHg 85%
21:00 +6°C° 0 mm 1 m/s 745 mmHg 85%
22:00 +6°C° 0 mm 1 m/s 745 mmHg 86%
23:00 +6°C° 0 mm 1 m/s 744 mmHg 87%

Amanhã, 18 Abril, Domingo

Tempo Temperatura Precipitação Vento Pressão Humidade
00:00 +6°C° 0 mm 1 m/s 744 mmHg 88%
01:00 +6°C° 0 mm 1 m/s 744 mmHg 89%
02:00 +6°C° 0 mm 1 m/s 744 mmHg 91%
03:00 +5°C° 0 mm 2 m/s 744 mmHg 93%
04:00 +5°C° 0 mm 2 m/s 743 mmHg 96%
05:00 +5°C° 0.1 mm 2 m/s 743 mmHg 96%
06:00 +6°C° 0.1 mm 1 m/s 744 mmHg 96%
07:00 +6°C° 0.1 mm 1 m/s 744 mmHg 97%
08:00 +6°C° 0 mm 2 m/s 744 mmHg 95%
09:00 +6°C° 0 mm 2 m/s 744 mmHg 94%
10:00 +7°C° 0 mm 2 m/s 744 mmHg 93%
11:00 +7°C° 0 mm 2 m/s 744 mmHg 90%
12:00 +8°C° 0 mm 2 m/s 744 mmHg 88%
13:00 +8°C° 0 mm 2 m/s 744 mmHg 86%
14:00 +9°C° 0.1 mm 2 m/s 744 mmHg 84%
15:00 +9°C° 0.1 mm 2 m/s 743 mmHg 81%
16:00 +10°C° 0.1 mm 2 m/s 743 mmHg 79%
17:00 +9°C° 0.3 mm 2 m/s 743 mmHg 83%
18:00 +8°C° 0.3 mm 2 m/s 743 mmHg 87%
19:00 +9°C° 0.3 mm 1 m/s 743 mmHg 91%
20:00 +8°C° 0.2 mm 1 m/s 743 mmHg 93%
21:00 +8°C° 0.2 mm 1 m/s 743 mmHg 95%
22:00 +7°C° 0.2 mm 1 m/s 743 mmHg 97%
23:00 +7°C° 0 mm 1 m/s 743 mmHg 97%

Depois de amanhã, 19 Abril, Segunda-feira

Tempo Temperatura Precipitação Vento Pressão Humidade
00:00 +7°C° 0 mm 1 m/s 743 mmHg 96%
01:00 +6°C° 0 mm 1 m/s 743 mmHg 96%
02:00 +6°C° 0 mm 1 m/s 743 mmHg 97%
03:00 +6°C° 0 mm 1 m/s 743 mmHg 97%
04:00 +6°C° 0 mm 1 m/s 743 mmHg 97%
05:00 +7°C° 0 mm 1 m/s 743 mmHg 96%
06:00 +7°C° 0 mm 1 m/s 743 mmHg 95%
07:00 +8°C° 0 mm 1 m/s 743 mmHg 94%
08:00 +9°C° 0 mm 1 m/s 743 mmHg 88%
09:00 +9°C° 0 mm 2 m/s 743 mmHg 81%
10:00 +12°C° 0 mm 2 m/s 743 mmHg 75%
11:00 +12°C° 0.3 mm 2 m/s 742 mmHg 74%
12:00 +12°C° 0.3 mm 3 m/s 742 mmHg 73%
13:00 +12°C° 0.3 mm 3 m/s 742 mmHg 71%
14:00 +12°C° 0.3 mm 3 m/s 742 mmHg 72%
15:00 +13°C° 0.3 mm 2 m/s 741 mmHg 72%
16:00 +13°C° 0.3 mm 2 m/s 741 mmHg 72%
17:00 +12°C° 0.3 mm 2 m/s 741 mmHg 77%
18:00 +11°C° 0.3 mm 1 m/s 741 mmHg 82%
19:00 +10°C° 0.3 mm 1 m/s 741 mmHg 87%
20:00 +9°C° 0 mm 1 m/s 741 mmHg 88%
21:00 +9°C° 0 mm 1 m/s 741 mmHg 88%
22:00 +7°C° 0 mm 0 m/s 741 mmHg 89%
23:00 +7°C° 0 mm 0 m/s 741 mmHg 89%

20 Abril, Terça-feira

Tempo Temperatura Precipitação Vento Pressão Humidade
00:00 +7°C° 0 mm 0 m/s 741 mmHg 89%
01:00 +7°C° 0 mm 0 m/s 740 mmHg 90%
02:00 +6°C° 0 mm 0 m/s 740 mmHg 89%
03:00 +6°C° 0 mm 0 m/s 740 mmHg 89%
04:00 +6°C° 0 mm 0 m/s 740 mmHg 89%
05:00 +7°C° 0 mm 0 m/s 740 mmHg 88%
06:00 +8°C° 0 mm 0 m/s 740 mmHg 87%
07:00 +8°C° 0 mm 0 m/s 740 mmHg 86%
08:00 +10°C° 0.1 mm 1 m/s 740 mmHg 77%
09:00 +12°C° 0.1 mm 1 m/s 740 mmHg 67%
10:00 +13°C° 0.1 mm 2 m/s 740 mmHg 58%
11:00 +14°C° 0 mm 2 m/s 740 mmHg 55%
12:00 +14°C° 0 mm 2 m/s 739 mmHg 51%
13:00 +15°C° 0 mm 2 m/s 739 mmHg 47%
14:00 +15°C° 0 mm 2 m/s 739 mmHg 48%
15:00 +15°C° 0 mm 2 m/s 738 mmHg 49%
16:00 +15°C° 0 mm 2 m/s 738 mmHg 49%
17:00 +13°C° 0 mm 1 m/s 738 mmHg 56%
18:00 +12°C° 0 mm 1 m/s 738 mmHg 63%
19:00 +11°C° 0 mm 1 m/s 738 mmHg 69%
20:00 +10°C° 0 mm 1 m/s 738 mmHg 70%
21:00 +9°C° 0 mm 1 m/s 738 mmHg 71%
22:00 +9°C° 0 mm 1 m/s 738 mmHg 72%
23:00 +9°C° 0 mm 1 m/s 738 mmHg 72%

21 Abril, Quarta-feira

Tempo Temperatura Precipitação Vento Pressão Humidade
00:00 +9°C° 0 mm 1 m/s 738 mmHg 72%
01:00 +9°C° 0 mm 1 m/s 738 mmHg 72%
02:00 +9°C° 0 mm 1 m/s 737 mmHg 73%
03:00 +8°C° 0 mm 1 m/s 737 mmHg 74%
04:00 +8°C° 0 mm 1 m/s 737 mmHg 75%
05:00 +9°C° 0 mm 1 m/s 737 mmHg 76%
06:00 +8°C° 0 mm 2 m/s 737 mmHg 77%
07:00 +8°C° 0 mm 2 m/s 737 mmHg 78%
08:00 +9°C° 0 mm 3 m/s 737 mmHg 74%
09:00 +10°C° 0 mm 4 m/s 737 mmHg 69%
10:00 +10°C° 0 mm 5 m/s 737 mmHg 65%
11:00 +10°C° 0.1 mm 5 m/s 737 mmHg 67%
12:00 +10°C° 0.1 mm 6 m/s 737 mmHg 68%
13:00 +9°C° 0.1 mm 6 m/s 737 mmHg 70%
14:00 +8°C° 0.2 mm 6 m/s 737 mmHg 76%
15:00 +6°C° 0.2 mm 5 m/s 737 mmHg 81%
16:00 +5°C° 0.2 mm 5 m/s 738 mmHg 87%
17:00 +3°C° 0.2 mm 5 m/s 738 mmHg 86%
18:00 +3°C° 0.2 mm 5 m/s 738 mmHg 85%
19:00 +2°C° 0.2 mm 5 m/s 738 mmHg 84%
20:00 +2°C° 0 mm 5 m/s 739 mmHg 85%
21:00 +1°C° 0 mm 4 m/s 739 mmHg 87%
22:00 0°C° 0 mm 4 m/s 740 mmHg 89%
23:00 0°C° 0.1 mm 4 m/s 740 mmHg 89%

22 Abril, Quinta-feira

Tempo Temperatura Precipitação Vento Pressão Humidade
00:00 0°C° 0.1 mm 4 m/s 740 mmHg 89%
01:00 -1°C° 0.1 mm 5 m/s 740 mmHg 89%
02:00 -1°C° 0 mm 5 m/s 740 mmHg 90%
03:00 -1°C° 0 mm 5 m/s 740 mmHg 90%
04:00 -3°C° 0 mm 6 m/s 740 mmHg 90%
05:00 -2°C° 0 mm 6 m/s 740 mmHg 88%
06:00 -2°C° 0 mm 6 m/s 740 mmHg 86%
07:00 -1°C° 0 mm 7 m/s 740 mmHg 85%
08:00 -1°C° 0.1 mm 7 m/s 740 mmHg 82%
09:00 0°C° 0.1 mm 8 m/s 739 mmHg 80%
10:00 +1°C° 0.1 mm 8 m/s 739 mmHg 77%
11:00 +1°C° 1.1 mm 8 m/s 739 mmHg 83%
12:00 +1°C° 1.1 mm 8 m/s 739 mmHg 89%
13:00 +1°C° 1.1 mm 8 m/s 739 mmHg 95%
14:00 +2°C° 0.9 mm 7 m/s 740 mmHg 94%
15:00 +2°C° 0.9 mm 6 m/s 740 mmHg 93%
16:00 +3°C° 0.9 mm 5 m/s 740 mmHg 92%
17:00 +3°C° 0.4 mm 5 m/s 741 mmHg 92%
18:00 +3°C° 0.4 mm 5 m/s 742 mmHg 92%
19:00 +5°C° 0.4 mm 5 m/s 742 mmHg 92%
20:00 +3°C° 0.4 mm 5 m/s 743 mmHg 93%
21:00 +3°C° 0.4 mm 5 m/s 743 mmHg 94%
22:00 +3°C° 0.4 mm 5 m/s 744 mmHg 95%
23:00 +3°C° 0.1 mm 5 m/s 744 mmHg 96%
Mostrar mais

Necessitamos do seu Consentimento

A Meteoprog e os seus Fornecedores de Serviços podem armazenar e aceder a dados pessoais como cookies, identificadores do dispositivo ou outras tecnologias semelhantes existentes no seu dispositivo e processar estes dados para personalizar conteúdos e anúncios, assim como funcionalidades nas redes sociais e análise de tráfego.

  • Armazenar e/ou aceder a informações no seu dispositivo

    Os cookies, identificadores do dispositivo ou outras informações podem ser armazenados ou acedidos no seu dispositivo, para os fins acima indicados.

  • Anúncios e conteúdos personalizados, medição de anúncios e conteúdos, dados sobre o público-alvo e desenvolvimento de produtos

    Os anúncios e os conteúdos podem ser personalizados com base num perfil. Podem ser adicionados dados adicionais para uma maior personalização dos anúncios e dos conteúdos. A eficácia dos anúncios e dos conteúdos pode ser medida. Podem ser obtidas informações sobre o público que visualizou os anúncios e os conteúdos. Estes dados podem ser usados para desenvolver ou melhorar sistemas, softwares ou a experiência do utilizador.

Ao clicar em "Eu concordo”, permitirá o uso de cookies, identificadores do dispositivo e web beacons mencionados ou outras tecnologias semelhantes. As configurações do navegador do seu dispositivo podem ser alteradas.

Para certos fins, podem ser invocados interesses legítimos ao invés de consentimento. Pode ler mais informação sobre este assunto na nossa Política de Privacidade e Cookies.